Regional Weather Roundup
Issued by NWS Charleston, SC

Current Version | Previous Version | Graphics & Text | Print | Product List | Glossary On
Versions: 1 2 3 4 5 6 7 8 9 10 11 12 13 14 15 16 17 18 19 20 21 22 23 24 25 26 27 28 29 30 31 32 33 34 35 36 37 38 39 40 41 42 43 44 45 46 47 48 49 50
000
ASUS42 KCHS 190427
RWRCHS

REGIONAL WEATHER ROUNDUP
NATIONAL WEATHER SERVICE CHARLESTON SC
1100 PM EST WED JAN 18 2017

NOTE: "FAIR" INDICATES FEW OR NO CLOUDS BELOW 12,000 FEET WITH NO
SIGNIFICANT WEATHER AND/OR OBSTRUCTIONS TO VISIBILITY.

NOT ALL STATIONS ARE QUALITY CONTROLLED. USE DATA WITH CAUTION...
ESPECIALLY DEWPOINT OBSERVATIONS.

SCZ027-030-031-034>040-042>050-190500-
...SOUTHEAST SOUTH CAROLINA...

CITY           SKY/WX    TMP DP  RH WIND       PRES   REMARKS
N CHARLESTON   CLEAR     64  58  80 W6        30.03F
WATERFRONT PRK   N/A     67  61  80 VRB2      30.02S
MOUNT PLEASANT FAIR      64  61  88 CALM      30.03S
JOHNS ISLAND   FAIR      64  61  88 W6        30.03F
PINOPOLIS        N/A     61  59  94 CALM      29.95R
MONCKS CORNER  FAIR      59  55  88 CALM      30.03F
SUMMERVILLE    FAIR     N/A N/A N/A W3        30.05S
BEAUFORT MCAS  CLEAR     60  57  89 SW3       30.05S
BEAUFORT ARPT  FAIR      61  57  88 SW5       30.04F
HILTON HEAD IS CLEAR     63  59  88 CALM      30.06S
WALTERBORO     CLEAR     61  57  88 W5        30.05F
ALLENDALE      FAIR      61  57  88 CALM      30.04S

...SOUTHERN MIDLANDS AND PEE DEE...

CITY           SKY/WX    TMP DP  RH WIND       PRES   REMARKS
GEORGETOWN       N/A     52  52 100 CALM      30.05S FOG
KINGSTREE      FAIR      48  46  93 CALM      30.04S
ORANGEBURG     CLEAR     61  57  87 CALM      30.04S
BARNWELL       FAIR      59  59 100 CALM      30.05S
AIKEN          FAIR      55  46  71 CALM      30.09S
MANNING        FAIR      50  39  66 CALM      30.05S
COLUMBIA       CLEAR     56  45  66 CALM      30.04R
SUMTER         CLEAR     51  45  78 CALM      30.02S
FLORENCE       CLEAR     51  43  74 CALM      30.05R
MYRTLE BEACH   CLEAR     57  43  58 NE7       30.06R
N MYRTLE BEACH CLEAR     48  46  93 NE5       30.03S

$$

GAZ063-065-086>088-099>101-113>116-118-119-134>141-150-190500-
...SOUTHEAST GEORGIA...

CITY           SKY/WX    TMP DP  RH WIND       PRES   REMARKS
SAVANNAH ARPT  CLEAR     63  56  78 W7        30.06S
HUNTER AAF     CLEAR     62  60  93 W8        30.03S
FORT STEWART   CLEAR     64  58  81 W6        30.05S
STATESBORO     CLEAR     62  59  92 W3        30.06F
SYLVANIA       CLEAR    N/A N/A N/A CALM      30.07S
CLAXTON        FAIR     N/A N/A N/A CALM      30.07F

...CSRA...CENTRAL AND FAR SOUTHEAST GEORGIA...

CITY           SKY/WX    TMP DP  RH WIND       PRES   REMARKS
THOMSON        CLEAR     58  55  89 CALM      30.11S
AUGUSTA-BUSH   CLEAR     58  54  86 CALM        N/A
AUGUSTA-DANIEL CLEAR     66  49  54 NW7       30.07R
SWAINSBORO     FAIR      61  57  88 MISG      30.08S
VIDALIA        CLEAR     63  61  94 W3        30.08F
EASTMAN        FAIR      57  57 100 CALM      30.12S
HAZLEHURST     FAIR      60  60 100 CALM      30.09R
ALMA           PTCLDY    57  57 100 CALM      30.09S
WAYCROSS       PTCLDY    62  62 100 SW5       30.09F
JESUP          FAIR      63  57  82 W3        30.08F
BAXLEY         FAIR      59  59 100 CALM      30.09S
BRUNSWICK      CLEAR     63  61  94 W5        30.08F
SAINT SIMONS   CLEAR     64  58  80 W5        30.08F

$$

SCZ027-028-034-036>038-045-046-048>050-GAZ119-141-190500-
...LAKE AND SUPPLEMENTAL COASTAL OBSERVATIONS...

STATION/POSITION TIME  TEMP    WIND        PRES    WAVE   SWELL
                       AIR SEA DIR/SP/G            HT/PER HT/PER/DIR
                 (UTC) (F)     (DEG/KT/KT) (MB)    (FT/S) (FT/S/D)
WINYAH BAY       0345   57     340/  2     1017.0S
LAKE MURRAY      0350   56      CALM  /  1 1017.3R
ACE BASIN NERRS  0345   60        CALM     1017.0S
FORT PULASKI     0400   66 57  280/  3/  4 1018.0
SAPELO ISLAND    0400   61     250/  3     1018.0

$$

ANZ835-935-AMZ111-154-330-350-352-354-370-450-454-472-190500-
...C-MAN AND BUOY OBSERVATIONS...

STATION/POSITION TIME  TEMP    WIND        PRES    WAVE   SWELL
                       AIR SEA DIR/SP/G            HT/PER HT/PER/DIR
                 (UTC) (F)     (DEG/KT/KT) (MB)    (FT/S) (FT/S/D)
BUOY 41004       0350   70 71  270/ 16/ 17 1016.0F   4/ 6
BUOY 41008       0350   63 60  230/ 12/ 14 1017.5F   1/ 9   2/ 80/ 9
FOLLY BEACH CMAN 0400   64     250/  5/  7 1017.5F
CAPERS NEARSHORE 0408   58 55  260/  6/  8 1016.7F
FRIPP NEARSHORE  0408   60 57  240/  6/  8 1017.1F


STATION/POSITION TIME  TEMP    WIND        PRES    WAVE   SWELL
                       AIR SEA DIR/SP/G            HT/PER HT/PER/DIR
                 (UTC) (F)     (DEG/KT/KT) (MB)    (FT/S) (FT/S/D)
5E ST. MARYS GA  0400      63                N/A     1/ 9
FRYING PAN BUOY  0410   65 71   60/ 14/ 17 1016.8
BUOY 41025       0350   54 75   20/ 17/ 23 1016.5R   5/ 7   2/350/14
CAPE LOOKOUT NC  0400   52      20/ 11/ 13 1017.2S
BUOY 41002       0350   69 72   10/ 21/ 25 1014.5R   9/ 8
BUOY 41010       NOT AVBL
ST AUGUSTINE FL  0400   66 63  250/  6/  7 1019.6F


$$



USA.gov is the U.S. government's official web portal to all federal, state and local government web resources and services.